Showing default

YAM-14, 69008

Orbit data source: Space-Track

YAM-14, 69008 is an American payload satellite in SSO that was launched on Sun, 03 May 2026 UTC via an FALCON 9 launch vehicle from the Air Force Western Test Range (AFWTR). Payload-class satellites include a variety of spacecraft equipped with specific instruments for various scientific and technological missions. These include communications satellites like Starlink; space stations such as the ISS; scientific satellites like the Hubble; Earth observation satellites from companies like Planet Labs, Umbra, and HawkEye 360; GPS; miniature CubeSats for education and research; and military/defense satellites.

Loading next visibility...
Identifier
69008, 2026-100AE
Orbit
SSO
Country
Flag of USUS
Related business
Manufacturer
Airbus/Toulouse
Mission
Operational Commercial Technology
Bus & Motor
ARROW, Unknown motor
Mass
~150 kg wet, ~140 kg dry
Launch date (UTC)
2026-05-03 (3 months ago)
Launch vehicle
FALCON 9
Launch site
Air Force Western Test Range (AFWTR)
Object type
Payload
Rocket body
Debris
Shape & HBR
Box, 2.3 m
Radar Cross Section
0.035 m², Large (>1 m²)

Expand to show TLE details & history
Last TLE update: 23 hours ago

TLE from 23 hours ago
0 YAM-14
1 69008U 26100AE  26201.73035913  .00000962  00000-0  10458-3 0  9992
2 69008  97.7842  98.4445 0005689  21.6057 338.5400 14.90362272 11680
Epoch: 2026-07-20T17:31Z
TLE epoch observation values (Epoch: 2026-07-20T17:31:43.028Z)
Latitude
-0.00004°
Longitude
-102.99499°
Altitude
596.151 km
Speed
7.564 km/s
True Right ascension
06h 33m 46s
True Declination
0° 00' 00"
Sunlit
Object was in daylight at epoch
Visualization orbit readout
Latitude
Unknown
Longitude
Unknown
Altitude
Unknown
Speed
Unknown
Apparent Right ascension
Unknown
Apparent Declination
Unknown
Sunlit
N/A
Visualization observer readout
Local Sidereal Time
05:07:13
Azimuth
Unknown
Elevation
Unknown
Doppler factor
Unknown
Orbital elements
Apogee altitude
597.793 km
Perigee altitude
589.861 km
Semi-major axis
6,971.964 km
Eccentricity
0.00057
Inclination
97.7842°
RAAN
98.4445°
Arg. of periapsis
21.6057°
True anomaly
338.51613°
Mean anomaly
338.54°
Eccentric anomaly
338.52807°
Mean motion
3.7283 °/min
Orbital period
96.56 mins
BSTAR
0.00010458
Loading maneuver chart data...
Computing Atmospheric mass density...
Loading historical data...
Loading historical data...
Loading historical data...
Loading historical data...
Loading historical data...
Loading historical data...
Loading historical data...

Documentation

Showing up to 5 results
|